sat.trackr.live / text

‹ back to catalog

O3B FM18

NORAD 44115 · 2019-020D

PAYLOAD ACTIVE UNKNOWN

§ Identity

Operator
Country
O3B
Launch date
2019-04-04
Launch site
FRGUI
Launch vehicle
Mass (kg)
RCS (m²)

Purposes: comms

External: N2YO · Heavens-Above · Gunter

§ Orbital elements

Epoch: 2026-09-19T00:20:27.134016Z

Period
287.93 min
Inclination
0.0544°
Eccentricity
0.0002724
Mean motion
5.00115474 rev/d
Perigee alt
8,062.0 km
Apogee alt
8,069.8 km
Semi-major
14,444.0 km
B*
0.0000e+0
RAAN
352.9691°
Arg perigee
186.4327°
Mean anomaly
180.6006°
Rev number
13,634

§ Raw data

O3B FM181 44115U 19020D   26262.01420294 -.00000028  00000+0  00000+0 0  99962 44115   0.0544 352.9691 0002724 186.4327 180.6006  5.00115474136346

JSON: /api/v1/satellites/44115 · /tle

For live sub-satellite position, see the globe view (requires WebGL).

§ Visibility from observer

Set your observer location to see the next 7 days of passes ≥ 10°. The values pass through the URL so the page stays shareable.

No JS? Fill the form by hand. The geolocation button needs JavaScript.